TimeEDT,TemperatureF,Dew PointF,Humidity,Sea Level PressureIn,VisibilityMPH,Wind Direction,Wind SpeedMPH,Gust SpeedMPH,PrecipitationIn,Events,Conditions,WindDirDegrees,DateUTC
12:51 AM,64.9,62.1,90,29.70,8.0,South,19.6,-,0.00,Rain,Light Rain,190,2013-10-18 04:51:00
1:08 AM,64.4,62.6,94,29.70,10.0,South,16.1,-,0.00,,Overcast,190,2013-10-18 05:08:00
1:51 AM,64.0,62.1,93,29.70,10.0,SSW,12.7,-,0.00,,Overcast,210,2013-10-18 05:51:00
2:51 AM,64.0,59.0,84,29.71,10.0,West,17.3,26.5,N/A,,Overcast,260,2013-10-18 06:51:00
3:51 AM,63.0,54.0,72,29.73,10.0,West,19.6,29.9,N/A,,Scattered Clouds,270,2013-10-18 07:51:00
4:51 AM,61.0,50.0,67,29.76,10.0,West,17.3,27.6,N/A,,Partly Cloudy,280,2013-10-18 08:51:00
5:51 AM,59.0,46.9,64,29.78,10.0,West,18.4,28.8,N/A,,Partly Cloudy,280,2013-10-18 09:51:00
6:51 AM,59.0,44.1,58,29.81,10.0,West,21.9,31.1,N/A,,Partly Cloudy,270,2013-10-18 10:51:00
7:51 AM,57.9,44.1,60,29.84,10.0,WNW,12.7,21.9,N/A,,Partly Cloudy,290,2013-10-18 11:51:00
8:51 AM,59.0,43.0,55,29.87,10.0,West,16.1,-,N/A,,Scattered Clouds,280,2013-10-18 12:51:00
9:51 AM,61.0,43.0,52,29.88,10.0,WNW,19.6,25.3,N/A,,Scattered Clouds,300,2013-10-18 13:51:00
10:51 AM,63.0,42.1,46,29.89,10.0,WNW,18.4,23.0,N/A,,Partly Cloudy,300,2013-10-18 14:51:00
11:51 AM,64.9,42.1,43,29.89,10.0,West,15.0,20.7,N/A,,Partly Cloudy,280,2013-10-18 15:51:00
12:51 PM,68.0,42.1,39,29.88,10.0,WNW,11.5,-,N/A,,Partly Cloudy,290,2013-10-18 16:51:00
1:51 PM,69.1,41.0,36,29.87,10.0,West,18.4,25.3,N/A,,Partly Cloudy,280,2013-10-18 17:51:00
2:51 PM,69.1,41.0,36,29.87,10.0,West,16.1,-,N/A,,Partly Cloudy,260,2013-10-18 18:51:00
3:51 PM,69.1,39.0,33,29.86,10.0,West,13.8,-,N/A,,Scattered Clouds,270,2013-10-18 19:51:00
4:51 PM,66.9,41.0,39,29.87,10.0,West,15.0,-,N/A,,Partly Cloudy,260,2013-10-18 20:51:00
5:51 PM,64.9,41.0,42,29.90,10.0,West,12.7,-,N/A,,Partly Cloudy,260,2013-10-18 21:51:00
6:51 PM,64.0,41.0,43,29.92,10.0,WSW,13.8,-,N/A,,Partly Cloudy,250,2013-10-18 22:51:00
7:51 PM,63.0,39.9,43,29.94,10.0,West,13.8,-,N/A,,Partly Cloudy,270,2013-10-18 23:51:00
8:51 PM,61.0,39.9,46,29.96,10.0,West,16.1,-,N/A,,Partly Cloudy,270,2013-10-19 00:51:00
9:51 PM,60.1,41.0,49,29.98,10.0,West,12.7,-,N/A,,Partly Cloudy,270,2013-10-19 01:51:00
10:51 PM,59.0,39.9,49,29.99,10.0,West,10.4,-,N/A,,Partly Cloudy,280,2013-10-19 02:51:00
11:51 PM,57.0,39.9,53,30.00,10.0,West,9.2,-,N/A,,Partly Cloudy,280,2013-10-19 03:51:00